SCP
0 0 0 0 0 0 0 0 0 0 0 0 0 0 0 0 0 0 0 0 0 0 0 0 0 0 0 0 0 0 0 0 0 0 0 0 0 0
0 0 0 0 0 0 0 0 0 0 0 0 0 0 0 0 0 0 0 0 0 -0 -0 -0 0 0 0 0 0 0 0 0 0 0 0 0 0 0
0 0 0 0 0 0 0 0 0 0 0 0 0 0 0 0 0 0 -0 -0 -0 -0 -0 -0 -0 -0 -0 -0 0 0 0 0 0 0 0 0 0 0
0 0 0 0 0 0 0 0 0 0 0 0 0 0 0 0 0 0 0 0 -0 -0 -0 -0 0 0 0 -0 0 0 0 0 -0 -0 -0 0 0 0
0 0 0 0 0 0 0 0 0 0 0 0 0 0 0 0 0 0 0 0 0 0 0 0 0 0 0 0 0 0 0 0 0 0 0 0 0 0
0 0 0 0 0 0 0 0 0 0 0 0 0 0 0 0 0 0 0 0 0 0 -0 -0 -0 0 0 0 0 0 0 0 0 0 0 0 0 0
0 0 0 0 0 0 0 0 0 0 0 0 0 0 0 0 0 0 0 0 0 -0 -0 0 0 0 0 0 -0 0 0 0 0 0 0 0 0 0
0 0 0 0 0 0 0 0 0 0 0 0 0 0 0 0 0 0 0 0 -0 -0 0 0 0 0 -0 -0 -0 -0 -0 0 0 0 0 0 0 0
0 0 0 0 0 0 0 0 0 0 0 0 0 0 0 0 0 0 0 0 0 0 0 -0 -0 -0 0 0 -0 -0 0 0 0 0 0 0 0 0
0 0 0 0 0 0 0 0 0 0 0 0 0 0 0 0 0 0 0 0 0 0 -0 0 -0 0 0 0 -0 -0 0 0 0 0 0 0 0 0
0 0 0 0 0 0 0 0 0 0 0 0 0 0 0 0 0 0 0 0 0 0 0 0 0 0 0 -0 -0 -0 0 0 0 0 0 0 -0 0
0 0 0 0 0 0 0 0 0 0 0 0 0 0 0 0 0 0 0 0 0 0 -0 0 0 0 -0 -0 0 0 0 -0 -0 -0 -0 -0 -0 0
0 0 0 0 0 0 0 0 0 0 0 0 0 0 0 0 0 0 0 0 0 0 0 0 0 0 0 0 0 0 0 0 0 0 0 -0 -0 -0
0 0 0 0 0 0 0 0 0 0 0 0 0 0 0 0 0 0 0 0 0 0 0 0 0 0 0 0 0 0 0 0 0 0 0 0 0 0
0 0 0 0 0 0 0 0 0 0 0 0 0 0 0 0 0 0 0 0 0 0 0 0 0 0 0 0 0 0 0 0 0 0 0 0 0 0
0 0 0 0 0 0 0 0 0 0 0 0 0 0 0 0 0 0 0 0 0 0 0 0 0 0 0 0 0 0 0 0 0 0 0 0 0 0
0 0 0 0 0 0 0 0 0 0 0 0 0 0 0 0 0 0 0 0 0 0 0 0 0 0 0 0 0 0 0 0 0 0 0 0 0 0
0 0 0 0 0 0 0 0 0 0 0 0 0 0 0 0 0 0 0 0 0 0 0 0 0 0 0 0 -0 0 0 0 0 0 0 0 0 0
0 0 0 0 0 0 0 0 0 0 0 0 0 0 0 0 0 0 0 0 0 0 0 0 0 0 0 0 0 0 0 0 0 0 0 0 0 0
0 0 0 0 0 0 0 0 0 0 0 0 0 0 0 0 0 0 0 0 0 0 0 0 0 0 0 0 0 0 0 0 0 0 0 0 0 0
0 0 0 0 0 0 0 0 0 0 0 0 0 0 0 0 0 0 0 0 0 0 0 0 0 0 0 0 0 0 0 0 0 0 0 0 0 0
0 0 0 0 0 0 0 0 0 0 0 0 0 0 0 0 0 0 0 0 0 0 0 0 0 0 0 0 0 0 0 0 0 0 -0 0 0 0
0 0 0 0 0 0 0 0 0 0 0 0 0 0 0 0 0 0 0 0 0 0 0 0 0 0 0 0 0 0 0 0 0 0 0 0 0 0
Wind_Speed_500mb
85 80 77 73 66 59 53 48 44 39 36 36 36 33 27 21 21 23 26 29 36 42 46 47 46 45 46 45 44 46 49 51 54 57 58 62 64 61
91 88 86 81 75 68 61 54 50 45 39 35 35 30 26 23 24 27 29 33 38 41 44 46 47 49 49 46 45 47 49 50 54 58 61 63 64 66
98 95 93 88 84 76 69 61 56 51 48 44 39 34 31 27 29 32 35 37 40 41 43 42 42 43 47 49 49 51 53 55 58 62 66 68 68 68
106 101 100 95 92 83 76 69 60 54 50 49 46 42 37 33 33 35 41 43 43 41 44 45 41 42 46 47 50 55 58 63 67 70 72 75 76 75
114 107 106 103 101 92 84 74 64 58 55 54 52 48 43 41 39 43 44 46 43 40 40 35 36 40 40 44 48 54 58 60 63 68 70 74 80 84
119 112 112 111 108 98 90 79 71 68 62 59 58 52 46 45 46 43 42 43 37 39 37 33 39 39 41 46 47 50 54 56 61 67 74 77 78 83
124 120 118 113 110 101 94 87 82 74 70 67 64 57 52 49 43 39 36 39 34 33 36 41 47 49 51 55 57 54 58 64 68 72 75 76 79 84
130 127 120 118 115 103 95 87 81 79 76 72 69 61 54 47 41 35 31 30 30 32 49 46 48 50 54 61 62 67 66 66 71 78 84 88 87 86
123 129 124 127 116 108 100 92 86 82 75 69 67 61 56 45 37 35 32 31 36 36 50 61 52 55 57 60 60 62 64 72 77 80 84 89 92 81
117 123 124 130 121 116 106 100 95 88 82 77 69 61 52 42 39 35 34 31 36 34 43 60 52 64 67 65 60 55 67 73 81 84 87 91 93 93
116 121 124 127 122 118 109 103 96 89 82 77 68 62 50 41 43 36 26 30 35 36 37 48 59 73 77 75 69 74 77 79 84 91 95 96 94 91
116 116 124 123 116 116 111 105 101 92 81 75 67 57 53 43 37 33 29 28 30 26 26 47 54 62 67 76 84 86 92 95 100 103 102 101 97 90
113 112 115 116 107 106 110 104 94 84 77 71 62 58 52 46 41 35 30 29 29 28 26 39 48 52 58 83 96 98 99 102 106 111 109 109 104 77
106 103 104 107 103 104 102 93 86 79 72 69 65 59 55 47 41 33 28 30 29 28 25 30 47 49 58 79 95 103 102 102 107 107 113 116 113 94
92 90 91 92 100 103 101 90 83 84 81 74 64 59 49 43 38 32 30 31 29 26 26 29 40 50 58 72 87 98 104 109 103 115 113 118 111 100
84 77 81 79 88 92 81 70 87 83 77 69 59 53 50 46 37 35 32 32 33 27 26 30 35 46 58 67 73 93 95 89 110 114 110 120 113 103
85 70 69 78 88 88 85 83 79 78 74 68 64 57 53 46 40 36 33 31 33 38 37 35 36 43 55 62 75 79 89 105 105 107 96 108 118 107
84 82 79 89 90 96 100 98 88 79 74 70 61 56 51 47 39 33 30 29 35 38 42 43 47 55 64 66 53 67 92 85 112 113 103 103 124 109
96 91 89 96 98 101 102 99 89 80 72 63 60 55 50 42 37 29 27 29 36 41 44 46 46 48 67 87 73 49 74 103 101 116 106 104 115 128
94 93 95 99 101 101 98 95 89 74 64 62 59 50 45 41 32 27 26 29 37 43 49 51 45 44 49 73 94 114 75 81 86 106 114 122 122 118
87 89 96 89 92 95 97 95 81 72 65 61 53 49 43 35 27 25 26 29 37 45 53 54 51 64 71 76 82 111 115 72 70 87 106 116 130 131
88 87 84 79 82 91 91 81 74 64 61 54 48 40 36 31 26 25 25 32 37 46 55 60 65 73 69 69 88 95 117 121 98 80 76 89 104 126
87 85 69 72 75 73 71 73 65 60 52 47 42 37 32 27 26 23 24 30 39 48 55 68 74 77 74 76 82 94 100 116 112 113 98 85 94 101
Wind_Direction_500mb
233 234 236 235 234 235 237 237 234 233 234 230 225 226 229 264 286 301 314 318 321 326 327 326 326 326 326 326 328 325 324 320 316 312 309 306 304 300
231 233 235 235 233 233 233 234 234 234 235 237 235 236 252 273 290 302 311 317 322 325 325 323 324 323 324 331 332 330 327 323 319 316 312 308 303 299
230 232 234 234 233 232 232 231 231 232 233 238 244 253 267 282 290 300 305 310 316 321 322 324 328 330 329 332 329 327 326 325 321 316 313 309 303 298
231 231 232 232 231 231 231 231 231 232 232 236 242 246 253 259 270 283 290 301 307 315 313 317 322 322 325 324 323 322 326 325 322 318 315 310 305 300
234 232 233 232 231 230 230 230 231 232 234 237 239 239 245 254 264 270 277 285 293 297 299 306 309 314 320 322 322 323 323 322 318 316 313 309 306 302
234 234 235 235 234 231 230 230 231 231 232 234 237 238 241 248 257 268 277 288 299 307 307 318 327 332 332 324 326 327 324 320 315 312 311 309 305 300
238 235 235 235 236 235 233 229 229 228 229 231 231 233 239 245 257 265 279 292 308 302 308 332 326 334 333 330 337 336 331 328 324 321 316 312 308 303
242 239 236 235 234 232 232 231 233 232 231 231 231 233 236 242 251 263 277 291 301 305 310 325 325 336 334 332 341 340 338 330 327 326 324 321 313 304
243 242 238 236 232 230 228 228 229 229 230 236 235 236 235 242 245 256 268 283 294 317 316 319 330 331 330 331 338 341 336 332 331 329 327 323 317 303
245 244 242 239 233 229 226 226 227 227 229 231 231 234 234 237 243 254 266 287 300 316 318 310 329 326 326 328 331 337 334 333 330 328 328 323 315 306
244 243 241 238 233 229 226 225 226 225 226 227 226 229 233 235 245 257 273 281 297 314 319 314 329 325 324 326 328 334 330 329 325 327 328 325 319 308
241 238 240 238 233 227 227 225 224 224 222 222 225 227 229 231 237 248 260 276 293 311 320 319 326 331 325 322 319 323 326 328 326 327 326 325 321 307
241 238 239 236 232 225 226 225 226 225 222 222 223 225 227 227 232 244 255 269 277 291 308 312 315 322 316 313 317 322 324 327 325 324 324 323 319 301
244 242 237 235 228 221 224 224 222 220 219 221 221 225 225 227 230 234 248 263 278 294 307 310 307 315 311 312 311 318 321 324 324 321 322 322 317 303
242 246 242 233 225 218 219 218 213 215 214 215 217 221 226 231 234 236 245 259 271 286 299 306 307 310 309 309 310 315 321 324 323 323 318 316 307 300
232 234 234 224 216 212 202 203 211 211 213 214 213 220 228 231 235 243 250 262 276 288 301 310 311 311 311 308 310 314 318 304 322 324 315 313 303 292
229 226 211 201 197 198 197 197 209 210 210 212 213 217 224 230 236 245 257 272 293 306 312 316 316 313 310 311 309 312 317 317 321 315 304 297 297 291
215 220 208 199 194 195 198 197 203 206 207 208 209 217 223 231 237 246 260 281 294 304 315 324 328 325 321 315 312 313 316 306 323 319 302 294 295 295
213 213 213 197 196 199 202 203 204 208 209 202 209 215 223 230 240 252 269 288 300 311 319 327 330 333 325 317 313 307 309 315 318 320 306 296 293 296
206 205 204 202 202 204 205 208 208 208 205 206 210 215 222 232 241 257 278 296 306 315 319 326 332 330 312 308 309 315 310 305 305 300 299 302 297 298
204 201 208 212 213 211 210 209 207 201 203 207 213 217 224 233 245 263 285 304 315 319 320 324 326 332 327 321 303 318 322 306 289 292 298 298 299 302
205 203 208 213 218 212 208 204 198 194 201 208 213 220 227 235 248 267 290 309 317 319 318 324 330 331 326 316 308 305 317 324 317 300 294 292 295 297
205 206 212 217 219 211 203 196 190 197 202 209 214 223 233 247 258 273 296 311 319 322 325 326 327 330 324 319 310 305 307 316 315 313 306 303 299 296
Wind_Speed_850mb
85 80 77 73 66 59 53 48 44 39 36 36 36 33 27 21 21 23 26 29 36 42 46 47 46 45 46 45 44 46 49 51 54 57 58 62 64 61
91 88 86 81 75 68 61 54 50 45 39 35 35 30 26 23 24 27 29 33 38 41 44 46 47 49 49 46 45 47 49 50 54 58 61 63 64 66
98 95 93 88 84 76 69 61 56 51 48 44 39 34 31 27 29 32 35 37 40 41 43 42 42 43 47 49 49 51 53 55 58 62 66 68 68 68
106 101 100 95 92 83 76 69 60 54 50 49 46 42 37 33 33 35 41 43 43 41 44 45 41 42 46 47 50 55 58 63 67 70 72 75 76 75
114 107 106 103 101 92 84 74 64 58 55 54 52 48 43 41 39 43 44 46 43 40 40 35 36 40 40 44 48 54 58 60 63 68 70 74 80 84
119 112 112 111 108 98 90 79 71 68 62 59 58 52 46 45 46 43 42 43 37 39 37 33 39 39 41 46 47 50 54 56 61 67 74 77 78 83
124 120 118 113 110 101 94 87 82 74 70 67 64 57 52 49 43 39 36 39 34 33 36 41 47 49 51 55 57 54 58 64 68 72 75 76 79 84
130 127 120 118 115 103 95 87 81 79 76 72 69 61 54 47 41 35 31 30 30 32 49 46 48 50 54 61 62 67 66 66 71 78 84 88 87 86
123 129 124 127 116 108 100 92 86 82 75 69 67 61 56 45 37 35 32 31 36 36 50 61 52 55 57 60 60 62 64 72 77 80 84 89 92 81
117 123 124 130 121 116 106 100 95 88 82 77 69 61 52 42 39 35 34 31 36 34 43 60 52 64 67 65 60 55 67 73 81 84 87 91 93 93
116 121 124 127 122 118 109 103 96 89 82 77 68 62 50 41 43 36 26 30 35 36 37 48 59 73 77 75 69 74 77 79 84 91 95 96 94 91
116 116 124 123 116 116 111 105 101 92 81 75 67 57 53 43 37 33 29 28 30 26 26 47 54 62 67 76 84 86 92 95 100 103 102 101 97 90
113 112 115 116 107 106 110 104 94 84 77 71 62 58 52 46 41 35 30 29 29 28 26 39 48 52 58 83 96 98 99 102 106 111 109 109 104 77
106 103 104 107 103 104 102 93 86 79 72 69 65 59 55 47 41 33 28 30 29 28 25 30 47 49 58 79 95 103 102 102 107 107 113 116 113 94
92 90 91 92 100 103 101 90 83 84 81 74 64 59 49 43 38 32 30 31 29 26 26 29 40 50 58 72 87 98 104 109 103 115 113 118 111 100
84 77 81 79 88 92 81 70 87 83 77 69 59 53 50 46 37 35 32 32 33 27 26 30 35 46 58 67 73 93 95 89 110 114 110 120 113 103
85 70 69 78 88 88 85 83 79 78 74 68 64 57 53 46 40 36 33 31 33 38 37 35 36 43 55 62 75 79 89 105 105 107 96 108 118 107
84 82 79 89 90 96 100 98 88 79 74 70 61 56 51 47 39 33 30 29 35 38 42 43 47 55 64 66 53 67 92 85 112 113 103 103 124 109
96 91 89 96 98 101 102 99 89 80 72 63 60 55 50 42 37 29 27 29 36 41 44 46 46 48 67 87 73 49 74 103 101 116 106 104 115 128
94 93 95 99 101 101 98 95 89 74 64 62 59 50 45 41 32 27 26 29 37 43 49 51 45 44 49 73 94 114 75 81 86 106 114 122 122 118
87 89 96 89 92 95 97 95 81 72 65 61 53 49 43 35 27 25 26 29 37 45 53 54 51 64 71 76 82 111 115 72 70 87 106 116 130 131
88 87 84 79 82 91 91 81 74 64 61 54 48 40 36 31 26 25 25 32 37 46 55 60 65 73 69 69 88 95 117 121 98 80 76 89 104 126
87 85 69 72 75 73 71 73 65 60 52 47 42 37 32 27 26 23 24 30 39 48 55 68 74 77 74 76 82 94 100 116 112 113 98 85 94 101
Wind_Direction_850mb
233 234 236 235 234 235 237 237 234 233 234 230 225 226 229 264 286 301 314 318 321 326 327 326 326 326 326 326 328 325 324 320 316 312 309 306 304 300
231 233 235 235 233 233 233 234 234 234 235 237 235 236 252 273 290 302 311 317 322 325 325 323 324 323 324 331 332 330 327 323 319 316 312 308 303 299
230 232 234 234 233 232 232 231 231 232 233 238 244 253 267 282 290 300 305 310 316 321 322 324 328 330 329 332 329 327 326 325 321 316 313 309 303 298
231 231 232 232 231 231 231 231 231 232 232 236 242 246 253 259 270 283 290 301 307 315 313 317 322 322 325 324 323 322 326 325 322 318 315 310 305 300
234 232 233 232 231 230 230 230 231 232 234 237 239 239 245 254 264 270 277 285 293 297 299 306 309 314 320 322 322 323 323 322 318 316 313 309 306 302
234 234 235 235 234 231 230 230 231 231 232 234 237 238 241 248 257 268 277 288 299 307 307 318 327 332 332 324 326 327 324 320 315 312 311 309 305 300
238 235 235 235 236 235 233 229 229 228 229 231 231 233 239 245 257 265 279 292 308 302 308 332 326 334 333 330 337 336 331 328 324 321 316 312 308 303
242 239 236 235 234 232 232 231 233 232 231 231 231 233 236 242 251 263 277 291 301 305 310 325 325 336 334 332 341 340 338 330 327 326 324 321 313 304
243 242 238 236 232 230 228 228 229 229 230 236 235 236 235 242 245 256 268 283 294 317 316 319 330 331 330 331 338 341 336 332 331 329 327 323 317 303
245 244 242 239 233 229 226 226 227 227 229 231 231 234 234 237 243 254 266 287 300 316 318 310 329 326 326 328 331 337 334 333 330 328 328 323 315 306
244 243 241 238 233 229 226 225 226 225 226 227 226 229 233 235 245 257 273 281 297 314 319 314 329 325 324 326 328 334 330 329 325 327 328 325 319 308
241 238 240 238 233 227 227 225 224 224 222 222 225 227 229 231 237 248 260 276 293 311 320 319 326 331 325 322 319 323 326 328 326 327 326 325 321 307
241 238 239 236 232 225 226 225 226 225 222 222 223 225 227 227 232 244 255 269 277 291 308 312 315 322 316 313 317 322 324 327 325 324 324 323 319 301
244 242 237 235 228 221 224 224 222 220 219 221 221 225 225 227 230 234 248 263 278 294 307 310 307 315 311 312 311 318 321 324 324 321 322 322 317 303
242 246 242 233 225 218 219 218 213 215 214 215 217 221 226 231 234 236 245 259 271 286 299 306 307 310 309 309 310 315 321 324 323 323 318 316 307 300
232 234 234 224 216 212 202 203 211 211 213 214 213 220 228 231 235 243 250 262 276 288 301 310 311 311 311 308 310 314 318 304 322 324 315 313 303 292
229 226 211 201 197 198 197 197 209 210 210 212 213 217 224 230 236 245 257 272 293 306 312 316 316 313 310 311 309 312 317 317 321 315 304 297 297 291
215 220 208 199 194 195 198 197 203 206 207 208 209 217 223 231 237 246 260 281 294 304 315 324 328 325 321 315 312 313 316 306 323 319 302 294 295 295
213 213 213 197 196 199 202 203 204 208 209 202 209 215 223 230 240 252 269 288 300 311 319 327 330 333 325 317 313 307 309 315 318 320 306 296 293 296
206 205 204 202 202 204 205 208 208 208 205 206 210 215 222 232 241 257 278 296 306 315 319 326 332 330 312 308 309 315 310 305 305 300 299 302 297 298
204 201 208 212 213 211 210 209 207 201 203 207 213 217 224 233 245 263 285 304 315 319 320 324 326 332 327 321 303 318 322 306 289 292 298 298 299 302
205 203 208 213 218 212 208 204 198 194 201 208 213 220 227 235 248 267 290 309 317 319 318 324 330 331 326 316 308 305 317 324 317 300 294 292 295 297
205 206 212 217 219 211 203 196 190 197 202 209 214 223 233 247 258 273 296 311 319 322 325 326 327 330 324 319 310 305 307 316 315 313 306 303 299 296